owner,sensor,date,latitude,longitude,sea_surface_height_above_sea_level,qcFlag 
TCOON,ioos:station:TCOON:009:1,2017-08-04T16:24:00Z,27.8398,-97.0727,1.8,1111122 
TCOON,ioos:station:TCOON:009:1,2017-08-04T19:48:00Z,27.8398,-97.0727,1.704,1111122 
TCOON,ioos:station:TCOON:009:1,2017-08-04T20:12:00Z,27.8398,-97.0727,1.681,1111122 
TCOON,ioos:station:TCOON:009:1,2017-08-04T21:24:00Z,27.8398,-97.0727,1.612,1111122 
TCOON,ioos:station:TCOON:009:1,2017-08-04T22:30:00Z,27.8398,-97.0727,1.581,1111122 
TCOON,ioos:station:TCOON:009:1,2017-08-05T05:18:00Z,27.8398,-97.0727,1.686,1111122 
TCOON,ioos:station:TCOON:009:1,2017-08-05T06:18:00Z,27.8398,-97.0727,1.717,1111122 
TCOON,ioos:station:TCOON:009:1,2017-08-05T07:18:00Z,27.8398,-97.0727,1.785,1111122 
TCOON,ioos:station:TCOON:009:1,2017-08-05T08:18:00Z,27.8398,-97.0727,1.809,1111122 
TCOON,ioos:station:TCOON:009:1,2017-08-05T09:24:00Z,27.8398,-97.0727,1.8,1111122 
TCOON,ioos:station:TCOON:009:1,2017-08-05T10:36:00Z,27.8398,-97.0727,1.824,1111122 
TCOON,ioos:station:TCOON:009:1,2017-08-05T11:36:00Z,27.8398,-97.0727,1.813,1111122 
TCOON,ioos:station:TCOON:009:1,2017-08-05T12:30:00Z,27.8398,-97.0727,1.805,1111122 
TCOON,ioos:station:TCOON:009:1,2017-08-05T13:42:00Z,27.8398,-97.0727,1.841,1111122 
TCOON,ioos:station:TCOON:009:1,2017-08-05T14:24:00Z,27.8398,-97.0727,1.824,1111122 
TCOON,ioos:station:TCOON:009:1,2017-08-05T16:48:00Z,27.8398,-97.0727,1.823,1111122 
TCOON,ioos:station:TCOON:009:1,2017-08-05T17:42:00Z,27.8398,-97.0727,1.793,1111122 
TCOON,ioos:station:TCOON:009:1,2017-08-05T19:48:00Z,27.8398,-97.0727,1.749,1111122 
TCOON,ioos:station:TCOON:009:1,2017-08-05T20:54:00Z,27.8398,-97.0727,1.712,1111122 
TCOON,ioos:station:TCOON:009:1,2017-08-05T22:00:00Z,27.8398,-97.0727,1.599,1111122 
TCOON,ioos:station:TCOON:009:1,2017-08-05T22:24:00Z,27.8398,-97.0727,1.592,1111122 
TCOON,ioos:station:TCOON:009:1,2017-08-06T03:18:00Z,27.8398,-97.0727,1.496,1111122 
TCOON,ioos:station:TCOON:009:1,2017-08-06T04:18:00Z,27.8398,-97.0727,1.505,1111122 
TCOON,ioos:station:TCOON:009:1,2017-08-06T05:18:00Z,27.8398,-97.0727,1.58,1111122 
TCOON,ioos:station:TCOON:009:1,2017-08-06T06:18:00Z,27.8398,-97.0727,1.7,1111122 
TCOON,ioos:station:TCOON:009:1,2017-08-06T07:18:00Z,27.8398,-97.0727,1.736,1111122 
TCOON,ioos:station:TCOON:009:1,2017-08-06T08:18:00Z,27.8398,-97.0727,1.764,1111122 
TCOON,ioos:station:TCOON:009:1,2017-08-06T09:18:00Z,27.8398,-97.0727,1.765,1111122 
TCOON,ioos:station:TCOON:009:1,2017-08-06T10:18:00Z,27.8398,-97.0727,1.803,1111122 
TCOON,ioos:station:TCOON:009:1,2017-08-06T11:18:00Z,27.8398,-97.0727,1.812,1111122 
TCOON,ioos:station:TCOON:009:1,2017-08-06T12:18:00Z,27.8398,-97.0727,1.791,1111122 
TCOON,ioos:station:TCOON:009:1,2017-08-06T13:18:00Z,27.8398,-97.0727,1.798,1111122 
TCOON,ioos:station:TCOON:009:1,2017-08-06T14:18:00Z,27.8398,-97.0727,1.806,1111122 
TCOON,ioos:station:TCOON:009:1,2017-08-06T15:18:00Z,27.8398,-97.0727,1.805,1111122 
TCOON,ioos:station:TCOON:009:1,2017-08-06T16:18:00Z,27.8398,-97.0727,1.803,1111122 
TCOON,ioos:station:TCOON:009:1,2017-08-06T17:18:00Z,27.8398,-97.0727,1.802,1111122 
TCOON,ioos:station:TCOON:009:1,2017-08-06T18:18:00Z,27.8398,-97.0727,1.796,1111122 
TCOON,ioos:station:TCOON:009:1,2017-08-06T19:18:00Z,27.8398,-97.0727,1.785,1111122 
TCOON,ioos:station:TCOON:009:1,2017-08-06T20:18:00Z,27.8398,-97.0727,1.764,1111122 
TCOON,ioos:station:TCOON:009:1,2017-08-06T21:18:00Z,27.8398,-97.0727,1.723,1111122 
TCOON,ioos:station:TCOON:009:1,2017-08-06T22:18:00Z,27.8398,-97.0727,1.652,1111122 
TCOON,ioos:station:TCOON:009:1,2017-08-06T23:18:00Z,27.8398,-97.0727,1.587,1111122 
TCOON,ioos:station:TCOON:009:1,2017-08-07T00:18:00Z,27.8398,-97.0727,1.521,1111122 
TCOON,ioos:station:TCOON:009:1,2017-08-07T01:18:00Z,27.8398,-97.0727,1.522,1111122 
TCOON,ioos:station:TCOON:009:1,2017-08-07T02:18:00Z,27.8398,-97.0727,1.522,1111122 
TCOON,ioos:station:TCOON:009:1,2017-08-07T03:18:00Z,27.8398,-97.0727,1.506,1111122 
TCOON,ioos:station:TCOON:009:1,2017-08-07T04:18:00Z,27.8398,-97.0727,1.527,1111122 
TCOON,ioos:station:TCOON:009:1,2017-08-07T05:18:00Z,27.8398,-97.0727,1.599,1111122 
TCOON,ioos:station:TCOON:009:1,2017-08-07T06:18:00Z,27.8398,-97.0727,1.664,1111122 
TCOON,ioos:station:TCOON:009:1,2017-08-07T07:18:00Z,27.8398,-97.0727,1.719,1111122 
TCOON,ioos:station:TCOON:009:1,2017-08-07T08:18:00Z,27.8398,-97.0727,1.743,1111122 
TCOON,ioos:station:TCOON:009:1,2017-08-07T09:18:00Z,27.8398,-97.0727,1.778,1111122 
TCOON,ioos:station:TCOON:009:1,2017-08-07T10:18:00Z,27.8398,-97.0727,1.836,1111122 
TCOON,ioos:station:TCOON:009:1,2017-08-07T11:18:00Z,27.8398,-97.0727,1.821,1111122 
TCOON,ioos:station:TCOON:009:1,2017-08-07T12:18:00Z,27.8398,-97.0727,1.811,1111122 
TCOON,ioos:station:TCOON:009:1,2017-08-07T13:18:00Z,27.8398,-97.0727,1.826,1111122 
TCOON,ioos:station:TCOON:009:1,2017-08-07T14:18:00Z,27.8398,-97.0727,1.825,1111122 
TCOON,ioos:station:TCOON:009:1,2017-08-07T15:18:00Z,27.8398,-97.0727,1.741,1111122 
TCOON,ioos:station:TCOON:009:1,2017-08-07T16:18:00Z,27.8398,-97.0727,1.787,1111122 
TCOON,ioos:station:TCOON:009:1,2017-08-07T17:18:00Z,27.8398,-97.0727,1.822,1111122 
TCOON,ioos:station:TCOON:009:1,2017-08-07T18:18:00Z,27.8398,-97.0727,1.788,1111122 
TCOON,ioos:station:TCOON:009:1,2017-08-07T19:18:00Z,27.8398,-97.0727,1.797,1111122 
TCOON,ioos:station:TCOON:009:1,2017-08-07T20:18:00Z,27.8398,-97.0727,1.794,1111122 
TCOON,ioos:station:TCOON:009:1,2017-08-07T21:18:00Z,27.8398,-97.0727,1.77,1111122 
TCOON,ioos:station:TCOON:009:1,2017-08-07T22:18:00Z,27.8398,-97.0727,1.678,1111122 
TCOON,ioos:station:TCOON:009:1,2017-08-07T23:18:00Z,27.8398,-97.0727,1.685,1111122 
TCOON,ioos:station:TCOON:009:1,2017-08-08T00:18:00Z,27.8398,-97.0727,1.619,1111122 
TCOON,ioos:station:TCOON:009:1,2017-08-08T01:18:00Z,27.8398,-97.0727,1.548,1111122 
TCOON,ioos:station:TCOON:009:1,2017-08-08T02:18:00Z,27.8398,-97.0727,1.516,1111122 
TCOON,ioos:station:TCOON:009:1,2017-08-08T03:18:00Z,27.8398,-97.0727,1.527,1111122 
TCOON,ioos:station:TCOON:009:1,2017-08-08T04:18:00Z,27.8398,-97.0727,1.531,1111122 
TCOON,ioos:station:TCOON:009:1,2017-08-08T05:18:00Z,27.8398,-97.0727,1.532,1111122 
TCOON,ioos:station:TCOON:009:1,2017-08-08T06:18:00Z,27.8398,-97.0727,1.592,1111122 
TCOON,ioos:station:TCOON:009:1,2017-08-08T07:18:00Z,27.8398,-97.0727,1.652,1111122 
TCOON,ioos:station:TCOON:009:1,2017-08-08T08:18:00Z,27.8398,-97.0727,1.736,1111122 
TCOON,ioos:station:TCOON:009:1,2017-08-08T09:18:00Z,27.8398,-97.0727,1.785,1111122 
TCOON,ioos:station:TCOON:009:1,2017-08-08T10:18:00Z,27.8398,-97.0727,1.794,1111122 
TCOON,ioos:station:TCOON:009:1,2017-08-08T11:18:00Z,27.8398,-97.0727,1.791,1111122 
TCOON,ioos:station:TCOON:009:1,2017-08-08T12:18:00Z,27.8398,-97.0727,1.79,1111122 
TCOON,ioos:station:TCOON:009:1,2017-08-08T13:18:00Z,27.8398,-97.0727,1.815,1111122 
TCOON,ioos:station:TCOON:009:1,2017-08-08T14:18:00Z,27.8398,-97.0727,1.83,1111122 
TCOON,ioos:station:TCOON:009:1,2017-08-08T15:18:00Z,27.8398,-97.0727,1.814,1111122 
TCOON,ioos:station:TCOON:009:1,2017-08-08T16:18:00Z,27.8398,-97.0727,1.796,1111122 
TCOON,ioos:station:TCOON:009:1,2017-08-08T17:18:00Z,27.8398,-97.0727,1.795,1111122 
TCOON,ioos:station:TCOON:009:1,2017-08-08T18:18:00Z,27.8398,-97.0727,1.8,1111122 
TCOON,ioos:station:TCOON:009:1,2017-08-08T19:18:00Z,27.8398,-97.0727,1.815,1111122 
TCOON,ioos:station:TCOON:009:1,2017-08-08T20:18:00Z,27.8398,-97.0727,1.818,1111122 
TCOON,ioos:station:TCOON:009:1,2017-08-08T21:18:00Z,27.8398,-97.0727,1.86,1111122 
TCOON,ioos:station:TCOON:009:1,2017-08-08T22:18:00Z,27.8398,-97.0727,1.751,1111122 
TCOON,ioos:station:TCOON:009:1,2017-08-08T23:18:00Z,27.8398,-97.0727,1.716,1111122 
TCOON,ioos:station:TCOON:009:1,2017-08-09T00:18:00Z,27.8398,-97.0727,1.651,1111122 
TCOON,ioos:station:TCOON:009:1,2017-08-09T01:18:00Z,27.8398,-97.0727,1.629,1111122 
TCOON,ioos:station:TCOON:009:1,2017-08-09T02:18:00Z,27.8398,-97.0727,1.549,1111122 
TCOON,ioos:station:TCOON:009:1,2017-08-09T03:18:00Z,27.8398,-97.0727,1.573,1111122 
TCOON,ioos:station:TCOON:009:1,2017-08-09T04:18:00Z,27.8398,-97.0727,1.543,1111122 
TCOON,ioos:station:TCOON:009:1,2017-08-09T05:18:00Z,27.8398,-97.0727,1.558,1111122 
TCOON,ioos:station:TCOON:009:1,2017-08-09T06:18:00Z,27.8398,-97.0727,1.617,1111122 
TCOON,ioos:station:TCOON:009:1,2017-08-09T07:18:00Z,27.8398,-97.0727,1.692,1111122 
TCOON,ioos:station:TCOON:009:1,2017-08-09T08:18:00Z,27.8398,-97.0727,1.748,1111122 
TCOON,ioos:station:TCOON:009:1,2017-08-09T09:18:00Z,27.8398,-97.0727,1.786,1111122 
TCOON,ioos:station:TCOON:009:1,2017-08-09T10:18:00Z,27.8398,-97.0727,1.786,1111122 
TCOON,ioos:station:TCOON:009:1,2017-08-09T11:18:00Z,27.8398,-97.0727,1.831,1111122 
TCOON,ioos:station:TCOON:009:1,2017-08-09T12:18:00Z,27.8398,-97.0727,1.838,1111122 
TCOON,ioos:station:TCOON:009:1,2017-08-09T13:18:00Z,27.8398,-97.0727,1.801,1111122 
TCOON,ioos:station:TCOON:009:1,2017-08-09T14:18:00Z,27.8398,-97.0727,1.803,1111122 
TCOON,ioos:station:TCOON:009:1,2017-08-09T15:18:00Z,27.8398,-97.0727,1.788,1111122 
TCOON,ioos:station:TCOON:009:1,2017-08-09T16:18:00Z,27.8398,-97.0727,1.817,1111122 
TCOON,ioos:station:TCOON:009:1,2017-08-09T22:42:00Z,27.8398,-97.0727,1.804,1111122 
TCOON,ioos:station:TCOON:009:1,2017-08-09T23:18:00Z,27.8398,-97.0727,1.78,1111122 
TCOON,ioos:station:TCOON:009:1,2017-08-10T00:18:00Z,27.8398,-97.0727,1.717,1111122 
TCOON,ioos:station:TCOON:009:1,2017-08-10T01:18:00Z,27.8398,-97.0727,1.701,1111122 
TCOON,ioos:station:TCOON:009:1,2017-08-10T02:18:00Z,27.8398,-97.0727,1.643,1111122 
TCOON,ioos:station:TCOON:009:1,2017-08-10T03:18:00Z,27.8398,-97.0727,1.628,1111122 
TCOON,ioos:station:TCOON:009:1,2017-08-10T04:18:00Z,27.8398,-97.0727,1.574,1111122 
TCOON,ioos:station:TCOON:009:1,2017-08-10T05:18:00Z,27.8398,-97.0727,1.62,1111122 
TCOON,ioos:station:TCOON:009:1,2017-08-10T06:18:00Z,27.8398,-97.0727,1.624,1111122 
TCOON,ioos:station:TCOON:009:1,2017-08-10T07:18:00Z,27.8398,-97.0727,1.666,1111122 
TCOON,ioos:station:TCOON:009:1,2017-08-10T08:18:00Z,27.8398,-97.0727,1.709,1111122 
TCOON,ioos:station:TCOON:009:1,2017-08-10T09:18:00Z,27.8398,-97.0727,1.765,1111122 
TCOON,ioos:station:TCOON:009:1,2017-08-10T10:18:00Z,27.8398,-97.0727,1.805,1111122 
TCOON,ioos:station:TCOON:009:1,2017-08-10T11:18:00Z,27.8398,-97.0727,1.817,1111122 
TCOON,ioos:station:TCOON:009:1,2017-08-10T12:18:00Z,27.8398,-97.0727,1.821,1111122 
TCOON,ioos:station:TCOON:009:1,2017-08-10T13:18:00Z,27.8398,-97.0727,1.78,1111122 
TCOON,ioos:station:TCOON:009:1,2017-08-10T14:18:00Z,27.8398,-97.0727,1.783,1111122 
TCOON,ioos:station:TCOON:009:1,2017-08-10T15:18:00Z,27.8398,-97.0727,1.793,1111122 
TCOON,ioos:station:TCOON:009:1,2017-08-10T16:18:00Z,27.8398,-97.0727,1.768,1111122 
TCOON,ioos:station:TCOON:009:1,2017-08-10T17:18:00Z,27.8398,-97.0727,1.787,1111122 
TCOON,ioos:station:TCOON:009:1,2017-08-10T18:18:00Z,27.8398,-97.0727,1.763,1111122 
TCOON,ioos:station:TCOON:009:1,2017-08-10T19:18:00Z,27.8398,-97.0727,1.772,1111122 
TCOON,ioos:station:TCOON:009:1,2017-08-10T20:18:00Z,27.8398,-97.0727,1.772,1111122 
TCOON,ioos:station:TCOON:009:1,2017-08-10T21:18:00Z,27.8398,-97.0727,1.829,1111122 
TCOON,ioos:station:TCOON:009:1,2017-08-10T22:18:00Z,27.8398,-97.0727,1.803,1111122 
TCOON,ioos:station:TCOON:009:1,2017-08-10T23:18:00Z,27.8398,-97.0727,1.801,1111122 
TCOON,ioos:station:TCOON:009:1,2017-08-11T00:18:00Z,27.8398,-97.0727,1.781,1111122 
TCOON,ioos:station:TCOON:009:1,2017-08-11T01:18:00Z,27.8398,-97.0727,1.719,1111122 
TCOON,ioos:station:TCOON:009:1,2017-08-11T02:18:00Z,27.8398,-97.0727,1.64,1111122 
TCOON,ioos:station:TCOON:009:1,2017-08-11T03:18:00Z,27.8398,-97.0727,1.657,1111122 
TCOON,ioos:station:TCOON:009:1,2017-08-11T04:18:00Z,27.8398,-97.0727,1.615,1111122 
TCOON,ioos:station:TCOON:009:1,2017-08-11T05:18:00Z,27.8398,-97.0727,1.59,1111122 
TCOON,ioos:station:TCOON:009:1,2017-08-11T06:18:00Z,27.8398,-97.0727,1.617,1111122 
TCOON,ioos:station:TCOON:009:1,2017-08-11T07:18:00Z,27.8398,-97.0727,1.666,1111122 
TCOON,ioos:station:TCOON:009:1,2017-08-11T08:18:00Z,27.8398,-97.0727,1.694,1111122 
TCOON,ioos:station:TCOON:009:1,2017-08-11T09:18:00Z,27.8398,-97.0727,1.68,1111122 
TCOON,ioos:station:TCOON:009:1,2017-08-11T10:18:00Z,27.8398,-97.0727,1.788,1111122 
TCOON,ioos:station:TCOON:009:1,2017-08-11T11:18:00Z,27.8398,-97.0727,1.755,1111122 
TCOON,ioos:station:TCOON:009:1,2017-08-11T12:18:00Z,27.8398,-97.0727,1.784,1111122 
TCOON,ioos:station:TCOON:009:1,2017-08-11T13:18:00Z,27.8398,-97.0727,1.804,1111122 
TCOON,ioos:station:TCOON:009:1,2017-08-11T14:18:00Z,27.8398,-97.0727,1.794,1111122 
TCOON,ioos:station:TCOON:009:1,2017-08-11T15:18:00Z,27.8398,-97.0727,1.757,1111122 
TCOON,ioos:station:TCOON:009:1,2017-08-11T16:18:00Z,27.8398,-97.0727,1.732,1111122 
TCOON,ioos:station:TCOON:009:1,2017-08-11T17:18:00Z,27.8398,-97.0727,1.731,1111122 
TCOON,ioos:station:TCOON:009:1,2017-08-11T18:18:00Z,27.8398,-97.0727,1.691,1111122 
TCOON,ioos:station:TCOON:009:1,2017-08-11T19:18:00Z,27.8398,-97.0727,1.71,1111122 
TCOON,ioos:station:TCOON:009:1,2017-08-11T20:18:00Z,27.8398,-97.0727,1.743,1111122 
TCOON,ioos:station:TCOON:009:1,2017-08-11T21:18:00Z,27.8398,-97.0727,1.775,1111122 
TCOON,ioos:station:TCOON:009:1,2017-08-11T22:18:00Z,27.8398,-97.0727,1.785,1111122 
TCOON,ioos:station:TCOON:009:1,2017-08-11T23:18:00Z,27.8398,-97.0727,1.789,1111122 
TCOON,ioos:station:TCOON:009:1,2017-08-12T00:18:00Z,27.8398,-97.0727,1.787,1111122 
TCOON,ioos:station:TCOON:009:1,2017-08-12T01:18:00Z,27.8398,-97.0727,1.741,1111122 
TCOON,ioos:station:TCOON:009:1,2017-08-12T02:18:00Z,27.8398,-97.0727,1.697,1111122 
TCOON,ioos:station:TCOON:009:1,2017-08-12T03:18:00Z,27.8398,-97.0727,1.695,1111122 
TCOON,ioos:station:TCOON:009:1,2017-08-12T04:18:00Z,27.8398,-97.0727,1.644,1111122 
TCOON,ioos:station:TCOON:009:1,2017-08-12T05:18:00Z,27.8398,-97.0727,1.639,1111122 
TCOON,ioos:station:TCOON:009:1,2017-08-12T06:18:00Z,27.8398,-97.0727,1.616,1111122 
TCOON,ioos:station:TCOON:009:1,2017-08-12T07:18:00Z,27.8398,-97.0727,1.625,1111122 
TCOON,ioos:station:TCOON:009:1,2017-08-12T08:18:00Z,27.8398,-97.0727,1.653,1111122 
TCOON,ioos:station:TCOON:009:1,2017-08-12T09:18:00Z,27.8398,-97.0727,1.664,1111122 
TCOON,ioos:station:TCOON:009:1,2017-08-12T10:18:00Z,27.8398,-97.0727,1.736,1111122 
TCOON,ioos:station:TCOON:009:1,2017-08-12T11:18:00Z,27.8398,-97.0727,1.738,1111122 
TCOON,ioos:station:TCOON:009:1,2017-08-12T12:18:00Z,27.8398,-97.0727,1.752,1111122 
TCOON,ioos:station:TCOON:009:1,2017-08-12T13:18:00Z,27.8398,-97.0727,1.754,1111122 
TCOON,ioos:station:TCOON:009:1,2017-08-12T14:18:00Z,27.8398,-97.0727,1.713,1111122 
TCOON,ioos:station:TCOON:009:1,2017-08-12T15:18:00Z,27.8398,-97.0727,1.726,1111122 
TCOON,ioos:station:TCOON:009:1,2017-08-12T16:18:00Z,27.8398,-97.0727,1.702,1111122 
TCOON,ioos:station:TCOON:009:1,2017-08-12T17:18:00Z,27.8398,-97.0727,1.666,1111122 
TCOON,ioos:station:TCOON:009:1,2017-08-12T18:18:00Z,27.8398,-97.0727,1.648,1111122 
TCOON,ioos:station:TCOON:009:1,2017-08-12T19:18:00Z,27.8398,-97.0727,1.631,1111122 
TCOON,ioos:station:TCOON:009:1,2017-08-12T20:24:00Z,27.8398,-97.0727,1.656,1111122 
TCOON,ioos:station:TCOON:009:1,2017-08-12T21:18:00Z,27.8398,-97.0727,1.709,1111122 
TCOON,ioos:station:TCOON:009:1,2017-08-12T22:18:00Z,27.8398,-97.0727,1.742,1111122 
TCOON,ioos:station:TCOON:009:1,2017-08-12T23:18:00Z,27.8398,-97.0727,1.771,1111122 
TCOON,ioos:station:TCOON:009:1,2017-08-13T00:18:00Z,27.8398,-97.0727,1.72,1111122 
TCOON,ioos:station:TCOON:009:1,2017-08-13T01:18:00Z,27.8398,-97.0727,1.757,1111122 
TCOON,ioos:station:TCOON:009:1,2017-08-13T02:18:00Z,27.8398,-97.0727,1.743,1111122 
TCOON,ioos:station:TCOON:009:1,2017-08-13T03:18:00Z,27.8398,-97.0727,1.731,1111122 
TCOON,ioos:station:TCOON:009:1,2017-08-13T04:18:00Z,27.8398,-97.0727,1.694,1111122 
TCOON,ioos:station:TCOON:009:1,2017-08-13T05:18:00Z,27.8398,-97.0727,1.696,1111122 
TCOON,ioos:station:TCOON:009:1,2017-08-13T06:18:00Z,27.8398,-97.0727,1.66,1111122 
TCOON,ioos:station:TCOON:009:1,2017-08-13T07:18:00Z,27.8398,-97.0727,1.663,1111122 
TCOON,ioos:station:TCOON:009:1,2017-08-13T08:18:00Z,27.8398,-97.0727,1.662,1111122 
TCOON,ioos:station:TCOON:009:1,2017-08-13T09:18:00Z,27.8398,-97.0727,1.69,1111122 
TCOON,ioos:station:TCOON:009:1,2017-08-13T10:18:00Z,27.8398,-97.0727,1.708,1111122 
TCOON,ioos:station:TCOON:009:1,2017-08-13T11:18:00Z,27.8398,-97.0727,1.726,1111122 
TCOON,ioos:station:TCOON:009:1,2017-08-13T12:18:00Z,27.8398,-97.0727,1.719,1111122 
TCOON,ioos:station:TCOON:009:1,2017-08-13T13:18:00Z,27.8398,-97.0727,1.723,1111122 
TCOON,ioos:station:TCOON:009:1,2017-08-13T14:18:00Z,27.8398,-97.0727,1.703,1111122 
TCOON,ioos:station:TCOON:009:1,2017-08-13T15:18:00Z,27.8398,-97.0727,1.68,1111122 
TCOON,ioos:station:TCOON:009:1,2017-08-13T16:18:00Z,27.8398,-97.0727,1.648,1111122 
TCOON,ioos:station:TCOON:009:1,2017-08-13T17:18:00Z,27.8398,-97.0727,1.611,1111122 
TCOON,ioos:station:TCOON:009:1,2017-08-13T18:18:00Z,27.8398,-97.0727,1.541,1111122 
TCOON,ioos:station:TCOON:009:1,2017-08-13T19:18:00Z,27.8398,-97.0727,1.568,1111122 
TCOON,ioos:station:TCOON:009:1,2017-08-13T20:18:00Z,27.8398,-97.0727,1.581,1111122 
TCOON,ioos:station:TCOON:009:1,2017-08-13T21:18:00Z,27.8398,-97.0727,1.6,1111122 
TCOON,ioos:station:TCOON:009:1,2017-08-13T22:18:00Z,27.8398,-97.0727,1.616,1111122 
TCOON,ioos:station:TCOON:009:1,2017-08-13T23:18:00Z,27.8398,-97.0727,1.656,1111122 
TCOON,ioos:station:TCOON:009:1,2017-08-14T00:18:00Z,27.8398,-97.0727,1.678,1111122 
TCOON,ioos:station:TCOON:009:1,2017-08-14T01:18:00Z,27.8398,-97.0727,1.679,1111122 
TCOON,ioos:station:TCOON:009:1,2017-08-14T02:18:00Z,27.8398,-97.0727,1.684,1111122 
TCOON,ioos:station:TCOON:009:1,2017-08-14T03:18:00Z,27.8398,-97.0727,1.68,1111122 
TCOON,ioos:station:TCOON:009:1,2017-08-14T04:18:00Z,27.8398,-97.0727,1.673,1111122 
TCOON,ioos:station:TCOON:009:1,2017-08-14T05:18:00Z,27.8398,-97.0727,1.63,1111122 
TCOON,ioos:station:TCOON:009:1,2017-08-14T06:18:00Z,27.8398,-97.0727,1.703,1111122 
TCOON,ioos:station:TCOON:009:1,2017-08-14T07:18:00Z,27.8398,-97.0727,1.69,1111122 
TCOON,ioos:station:TCOON:009:1,2017-08-14T08:18:00Z,27.8398,-97.0727,1.679,1111122 
TCOON,ioos:station:TCOON:009:1,2017-08-14T09:18:00Z,27.8398,-97.0727,1.69,1111122 
TCOON,ioos:station:TCOON:009:1,2017-08-14T10:18:00Z,27.8398,-97.0727,1.689,1111122 
TCOON,ioos:station:TCOON:009:1,2017-08-14T11:18:00Z,27.8398,-97.0727,1.703,1111122 
TCOON,ioos:station:TCOON:009:1,2017-08-14T12:18:00Z,27.8398,-97.0727,1.722,1111122 
TCOON,ioos:station:TCOON:009:1,2017-08-14T13:18:00Z,27.8398,-97.0727,1.712,1111122 
TCOON,ioos:station:TCOON:009:1,2017-08-14T14:18:00Z,27.8398,-97.0727,1.732,1111122 
TCOON,ioos:station:TCOON:009:1,2017-08-14T15:18:00Z,27.8398,-97.0727,1.686,1111122 
TCOON,ioos:station:TCOON:009:1,2017-08-14T16:18:00Z,27.8398,-97.0727,1.622,1111122 
TCOON,ioos:station:TCOON:009:1,2017-08-14T17:18:00Z,27.8398,-97.0727,1.566,1111122 
TCOON,ioos:station:TCOON:009:1,2017-08-14T18:18:00Z,27.8398,-97.0727,1.545,1111122 
TCOON,ioos:station:TCOON:009:1,2017-08-14T19:18:00Z,27.8398,-97.0727,1.507,1111122 
TCOON,ioos:station:TCOON:009:1,2017-08-14T20:18:00Z,27.8398,-97.0727,1.488,1111122 
TCOON,ioos:station:TCOON:009:1,2017-08-14T21:18:00Z,27.8398,-97.0727,1.487,1111122 
TCOON,ioos:station:TCOON:009:1,2017-08-14T22:18:00Z,27.8398,-97.0727,1.505,1111122 
TCOON,ioos:station:TCOON:009:1,2017-08-14T23:18:00Z,27.8398,-97.0727,1.538,1111122 
TCOON,ioos:station:TCOON:009:1,2017-08-15T00:18:00Z,27.8398,-97.0727,1.589,1111122 
TCOON,ioos:station:TCOON:009:1,2017-08-15T01:18:00Z,27.8398,-97.0727,1.614,1111122 
TCOON,ioos:station:TCOON:009:1,2017-08-15T02:18:00Z,27.8398,-97.0727,1.647,1111122 
TCOON,ioos:station:TCOON:009:1,2017-08-15T03:18:00Z,27.8398,-97.0727,1.665,1111122 
TCOON,ioos:station:TCOON:009:1,2017-08-15T04:18:00Z,27.8398,-97.0727,1.682,1111122 
TCOON,ioos:station:TCOON:009:1,2017-08-15T05:18:00Z,27.8398,-97.0727,1.697,1111122 
TCOON,ioos:station:TCOON:009:1,2017-08-15T06:18:00Z,27.8398,-97.0727,1.697,1111122 
TCOON,ioos:station:TCOON:009:1,2017-08-15T07:18:00Z,27.8398,-97.0727,1.702,1111122 
TCOON,ioos:station:TCOON:009:1,2017-08-15T08:18:00Z,27.8398,-97.0727,1.721,1111122 
TCOON,ioos:station:TCOON:009:1,2017-08-15T09:18:00Z,27.8398,-97.0727,1.74,1111122 
TCOON,ioos:station:TCOON:009:1,2017-08-15T10:18:00Z,27.8398,-97.0727,1.689,1111122 
TCOON,ioos:station:TCOON:009:1,2017-08-15T11:18:00Z,27.8398,-97.0727,1.719,1111122 
TCOON,ioos:station:TCOON:009:1,2017-08-15T12:18:00Z,27.8398,-97.0727,1.735,1111122 
TCOON,ioos:station:TCOON:009:1,2017-08-15T13:18:00Z,27.8398,-97.0727,1.737,1111122 
TCOON,ioos:station:TCOON:009:1,2017-08-15T14:18:00Z,27.8398,-97.0727,1.757,1111122 
TCOON,ioos:station:TCOON:009:1,2017-08-15T15:18:00Z,27.8398,-97.0727,1.733,1111122 
TCOON,ioos:station:TCOON:009:1,2017-08-15T16:18:00Z,27.8398,-97.0727,1.708,1111122 
TCOON,ioos:station:TCOON:009:1,2017-08-15T19:18:00Z,27.8398,-97.0727,1.564,1111122 
TCOON,ioos:station:TCOON:009:1,2017-08-15T20:18:00Z,27.8398,-97.0727,1.518,1111122 
TCOON,ioos:station:TCOON:009:1,2017-08-15T21:30:00Z,27.8398,-97.0727,1.471,1111122 
TCOON,ioos:station:TCOON:009:1,2017-08-15T22:36:00Z,27.8398,-97.0727,1.51,1111122 
TCOON,ioos:station:TCOON:009:1,2017-08-15T23:18:00Z,27.8398,-97.0727,1.506,1111122 
TCOON,ioos:station:TCOON:009:1,2017-08-16T00:18:00Z,27.8398,-97.0727,1.56,1111122 
TCOON,ioos:station:TCOON:009:1,2017-08-16T01:18:00Z,27.8398,-97.0727,1.596,1111122 
TCOON,ioos:station:TCOON:009:1,2017-08-16T02:18:00Z,27.8398,-97.0727,1.638,1111122 
TCOON,ioos:station:TCOON:009:1,2017-08-16T03:18:00Z,27.8398,-97.0727,1.694,1111122 
TCOON,ioos:station:TCOON:009:1,2017-08-16T04:18:00Z,27.8398,-97.0727,1.719,1111122 
TCOON,ioos:station:TCOON:009:1,2017-08-16T05:18:00Z,27.8398,-97.0727,1.704,1111122 
TCOON,ioos:station:TCOON:009:1,2017-08-16T06:18:00Z,27.8398,-97.0727,1.741,1111122 
TCOON,ioos:station:TCOON:009:1,2017-08-16T07:18:00Z,27.8398,-97.0727,1.725,1111122 
TCOON,ioos:station:TCOON:009:1,2017-08-16T08:18:00Z,27.8398,-97.0727,1.741,1111122 
TCOON,ioos:station:TCOON:009:1,2017-08-16T09:18:00Z,27.8398,-97.0727,1.724,1111122 
TCOON,ioos:station:TCOON:009:1,2017-08-16T10:18:00Z,27.8398,-97.0727,1.732,1111122 
TCOON,ioos:station:TCOON:009:1,2017-08-16T11:18:00Z,27.8398,-97.0727,1.734,1111122 
TCOON,ioos:station:TCOON:009:1,2017-08-16T12:18:00Z,27.8398,-97.0727,1.708,1111122 
TCOON,ioos:station:TCOON:009:1,2017-08-16T13:18:00Z,27.8398,-97.0727,1.712,1111122 
TCOON,ioos:station:TCOON:009:1,2017-08-16T14:18:00Z,27.8398,-97.0727,1.732,1111122 
TCOON,ioos:station:TCOON:009:1,2017-08-16T15:18:00Z,27.8398,-97.0727,1.723,1111122 
TCOON,ioos:station:TCOON:009:1,2017-08-16T16:18:00Z,27.8398,-97.0727,1.698,1111122 
TCOON,ioos:station:TCOON:009:1,2017-08-16T17:24:00Z,27.8398,-97.0727,1.605,1111122 
TCOON,ioos:station:TCOON:009:1,2017-08-16T20:18:00Z,27.8398,-97.0727,1.455,1111122 
TCOON,ioos:station:TCOON:009:1,2017-08-16T21:18:00Z,27.8398,-97.0727,1.405,1111122 
TCOON,ioos:station:TCOON:009:1,2017-08-16T22:18:00Z,27.8398,-97.0727,1.4,1111122 
TCOON,ioos:station:TCOON:009:1,2017-08-17T04:18:00Z,27.8398,-97.0727,1.668,1111122 
TCOON,ioos:station:TCOON:009:1,2017-08-17T05:18:00Z,27.8398,-97.0727,1.708,1111122 
TCOON,ioos:station:TCOON:009:1,2017-08-17T06:18:00Z,27.8398,-97.0727,1.726,1111122 
TCOON,ioos:station:TCOON:009:1,2017-08-17T07:18:00Z,27.8398,-97.0727,1.734,1111122 
TCOON,ioos:station:TCOON:009:1,2017-08-17T08:18:00Z,27.8398,-97.0727,1.736,1111122 
TCOON,ioos:station:TCOON:009:1,2017-08-17T09:18:00Z,27.8398,-97.0727,1.727,1111122 
TCOON,ioos:station:TCOON:009:1,2017-08-17T10:18:00Z,27.8398,-97.0727,1.728,1111122 
TCOON,ioos:station:TCOON:009:1,2017-08-17T11:18:00Z,27.8398,-97.0727,1.732,1111122 
TCOON,ioos:station:TCOON:009:1,2017-08-17T12:18:00Z,27.8398,-97.0727,1.733,1111122 
TCOON,ioos:station:TCOON:009:1,2017-08-17T13:18:00Z,27.8398,-97.0727,1.727,1111122 
TCOON,ioos:station:TCOON:009:1,2017-08-17T14:18:00Z,27.8398,-97.0727,1.731,1111122 
TCOON,ioos:station:TCOON:009:1,2017-08-17T15:18:00Z,27.8398,-97.0727,1.707,1111122 
TCOON,ioos:station:TCOON:009:1,2017-08-17T16:18:00Z,27.8398,-97.0727,1.692,1111122 